Weather History for KSTL - November, 2013

Change the Weather History Date:

Saturday, November 9, 2013

  Actual Average Record
Temperature  
Mean Temperature 59 °F 50 °F  
Max Temperature 69 °F 59 °F 78 °F (1975)
Min Temperature 48 °F 41 °F 16 °F (1991)
Degree Days  
Heating Degree Days 6 15  
Month to date heating degree days 123 122  
Since 1 July heating degree days 366 398  
Cooling Degree Days 0 0  
Month to date cooling degree days 0 0  
Year to date cooling degree days 1728 1642  
Growing Degree Days 8 (Base 50)    
Moisture  
Dew Point 36 °F    
Average Humidity 46    
Maximum Humidity 61    
Minimum Humidity 30    
Precipitation  
Precipitation 0.00 in 0.12 in 1.18 in (1946)
Month to date precipitation 0.44 1.09  
Year to date precipitation 40.14 35.30  
Snow  
Snow 0.00 in 0.00 in T in (1968)
Month to date snowfall 0.0 0.1  
Since 1 July snowfall 0.0 0.1  
Since 1 September snowfall 0.0 0.1  
Snow Depth 0.00 in    
Sea Level Pressure  
Sea Level Pressure 30.13 in    
Wind  
Wind Speed 10 mph (WSW)    
Max Wind Speed 22 mph    
Max Gust Speed 31 mph    
Visibility 10 miles    
Events      
T = Trace of Precipitation, MM = Missing Value Source: NWS Daily Summary

Daily Weather History Graph

Daily Weather History Graph

Search for Another Location

Airport or City:

Trip Planner

Search our weather history database for the weather conditions in past years. The results will help you decide how hot, cold, wet, or windy it might be!

Date:

Astronomy

Nov. 09, 2013 Rise Set
Actual Time 6:37 AM CST 4:52 PM CST
Civil Twilight 6:09 AM CST 5:20 PM CST
Nautical Twilight 5:37 AM CST 5:52 PM CST
Astronomical Twilight 5:06 AM CST 6:23 PM CST
Moon 12:15 PM CST (11/9) 11:22 PM CST (11/9)
Length of Visible Light 11h 11m
Length of Day
10h 15m
Waxing Crescent, 44% of the Moon is Illuminated
Nov 9
Waxing Crescent
Nov 9
First Quarter
Nov 17
Full
Nov 25
Last Quarter
Dec 2
New

Hourly Weather History & Observations

Time (CST) Temp. Dew Point Humidity Pressure Visibility Wind Dir Wind Speed Gust Speed Precip Events Conditions
12:51 AM 52.0 °F 33.1 °F 49% 30.08 in 10.0 mi South 13.8 mph 19.6 mph N/A   Clear
1:51 AM 52.0 °F 33.1 °F 49% 30.08 in 10.0 mi SSW 13.8 mph - N/A   Clear
2:51 AM 50.0 °F 34.0 °F 54% 30.06 in 10.0 mi SSW 10.4 mph - N/A   Clear
3:51 AM 51.1 °F 34.0 °F 52% 30.05 in 10.0 mi SSW 15.0 mph - N/A   Clear
4:51 AM 51.1 °F 35.1 °F 54% 30.06 in 10.0 mi SW 11.5 mph - N/A   Clear
5:51 AM 50.0 °F 35.1 °F 57% 30.08 in 10.0 mi SW 10.4 mph - N/A   Partly Cloudy
6:51 AM 50.0 °F 35.1 °F 57% 30.09 in 10.0 mi SW 10.4 mph - N/A   Scattered Clouds
7:51 AM 53.1 °F 36.0 °F 52% 30.11 in 10.0 mi SW 9.2 mph - N/A   Partly Cloudy
8:51 AM 57.0 °F 37.0 °F 47% 30.12 in 10.0 mi WSW 16.1 mph 26.5 mph N/A   Partly Cloudy
9:51 AM 59.0 °F 37.9 °F 46% 30.12 in 10.0 mi WSW 19.6 mph 24.2 mph N/A   Partly Cloudy
10:51 AM 62.1 °F 37.9 °F 41% 30.12 in 10.0 mi West 16.1 mph - N/A   Partly Cloudy
11:51 AM 64.0 °F 39.0 °F 40% 30.10 in 10.0 mi West 15.0 mph 21.9 mph N/A   Partly Cloudy
12:51 PM 66.0 °F 39.0 °F 37% 30.09 in 10.0 mi WSW 10.4 mph - N/A   Partly Cloudy
1:51 PM 66.9 °F 37.9 °F 34% 30.08 in 10.0 mi WSW 12.7 mph - N/A   Clear
2:51 PM 68.0 °F 35.1 °F 30% 30.09 in 10.0 mi West 13.8 mph - N/A   Clear
3:51 PM 66.9 °F 36.0 °F 32% 30.10 in 10.0 mi West 11.5 mph - N/A   Clear
4:51 PM 61.0 °F 37.0 °F 41% 30.13 in 10.0 mi West 5.8 mph - N/A   Partly Cloudy
5:51 PM 57.9 °F 36.0 °F 44% 30.15 in 10.0 mi West 4.6 mph - N/A   Clear
6:51 PM 54.0 °F 36.0 °F 51% 30.17 in 10.0 mi WSW 3.5 mph - N/A   Clear
7:51 PM 51.1 °F 36.0 °F 56% 30.19 in 10.0 mi WSW 3.5 mph - N/A   Clear
8:51 PM 48.9 °F 36.0 °F 61% 30.20 in 10.0 mi West 3.5 mph - N/A   Clear
9:51 PM 51.1 °F 36.0 °F 56% 30.22 in 10.0 mi West 3.5 mph - N/A   Clear
10:51 PM 48.9 °F 36.0 °F 61% 30.24 in 10.0 mi WNW 5.8 mph - N/A   Clear
11:51 PM 48.0 °F 35.1 °F 61% 30.25 in 10.0 mi WNW 3.5 mph - N/A   Clear